| time (UTC) | temp F | wind direction | speed knots | gust knots | rain 1hr in | rain 24hr in | rain mn in | humidity % | barometer mb |
| 20260508124550 | 49 | 179 | 3.5 | 9.6 | 0.00 | 0.00 | 0.00 | 64 | 1024.2 |
| 20260508123056 | 49 | 153 | 4.3 | 12.2 | 0.00 | 0.00 | 0.00 | 63 | 1024.2 |
| 20260508121556 | 49 | 182 | 3.5 | 8.7 | 0.00 | 0.00 | 0.00 | 63 | 1024.2 |
| 20260508120054 | 49 | 177 | 1.7 | 9.6 | 0.00 | 0.00 | 0.00 | 63 | 1024.1 |
| 20260508114550 | 49 | 205 | 4.3 | 11.3 | 0.00 | 0.00 | 0.00 | 63 | 1024.0 |
| 20260508113049 | 49 | 183 | 3.5 | 10.4 | 0.00 | 0.00 | 0.00 | 63 | 1024.1 |
| 20260508111548 | 49 | 163 | 3.5 | 9.6 | 0.00 | 0.00 | 0.00 | 63 | 1024.0 |
| 20260508110049 | 49 | 168 | 3.5 | 7.8 | 0.00 | 0.00 | 0.00 | 62 | 1024.0 |
| 20260508104618 | 50 | 207 | 4.3 | 9.6 | 0.00 | 0.00 | 0.00 | 62 | 1023.6 |
| 20260508103050 | 49 | 167 | 1.7 | 7.0 | 0.00 | 0.00 | 0.00 | 60 | 1023.8 |
| 20260508101553 | 50 | 184 | 2.6 | 7.8 | 0.00 | 0.00 | 0.00 | 59 | 1023.8 |
| 20260508100050 | 50 | 178 | 2.6 | 7.0 | 0.00 | 0.00 | 0.00 | 58 | 1023.5 |
| 20260508094555 | 49 | 188 | 0.9 | 5.2 | 0.00 | 0.00 | 0.00 | 58 | 1023.6 |
| 20260508093049 | 50 | 190 | 2.6 | 8.7 | 0.00 | 0.00 | 0.00 | 56 | 1023.2 |
| 20260508091553 | 51 | 195 | 3.5 | 10.4 | 0.00 | 0.00 | 0.00 | 55 | 1023.1 |
| 20260508090107 | 51 | 192 | 3.5 | 8.7 | 0.00 | 0.00 | 0.00 | 54 | 1023.1 |
| 20260508084632 | 52 | 176 | 3.5 | 9.6 | 0.00 | 0.00 | 0.00 | 53 | 1022.9 |
| 20260508083056 | 53 | 161 | 4.3 | 12.2 | 0.00 | 0.00 | 0.00 | 50 | 1022.7 |
| 20260508081555 | 54 | 212 | 5.2 | 10.4 | 0.00 | 0.00 | 0.00 | 49 | 1022.4 |
| 20260508080047 | 54 | 206 | 4.3 | 10.4 | 0.00 | 0.00 | 0.00 | 47 | 1022.4 |
| 20260508074546 | 55 | 187 | 3.5 | 9.6 | 0.00 | 0.00 | 0.00 | 47 | 1022.3 |
| 20260508073044 | 56 | 195 | 4.3 | 10.4 | 0.00 | 0.00 | 0.00 | 46 | 1022.2 |
| 20260508071600 | 56 | 205 | 3.5 | 12.2 | 0.00 | 0.00 | 0.00 | 45 | 1021.9 |
| 20260508070136 | 58 | 216 | 3.5 | 8.7 | 0.00 | 0.00 | 0.00 | 45 | 1021.9 |
| 20260508064605 | 59 | 180 | 3.5 | 12.2 | 0.00 | 0.00 | 0.00 | 43 | 1021.9 |
| 20260508063050 | 59 | 203 | 4.3 | 13.0 | 0.00 | 0.00 | 0.00 | 42 | 1021.9 |
| 20260508061549 | 60 | 179 | 6.1 | 10.4 | 0.00 | 0.00 | 0.00 | 42 | 1021.6 |
| 20260508060052 | 61 | 174 | 5.2 | 13.9 | 0.00 | 0.00 | 0.00 | 41 | 1021.5 |
| 20260508054545 | 61 | 150 | 5.2 | 13.0 | 0.00 | 0.00 | 0.00 | 40 | 1021.5 |
| 20260508053211 | 62 | 229 | 5.2 | 13.0 | 0.00 | 0.00 | 0.00 | 40 | 1021.3 |
| 20260508050047 | 62 | 215 | 5.2 | 16.5 | 0.00 | 0.00 | 0.00 | 39 | 1021.5 |
| 20260508044547 | 62 | 173 | 5.2 | 15.6 | 0.00 | 0.00 | 0.00 | 40 | 1021.5 |
| 20260508043101 | 63 | 188 | 6.1 | 12.2 | 0.00 | 0.00 | 0.00 | 38 | 1021.5 |
| 20260508041550 | 63 | 198 | 6.1 | 10.4 | 0.00 | 0.00 | 0.00 | 40 | 1021.5 |
| 20260508040050 | 64 | 145 | 4.3 | 13.0 | 0.00 | 0.00 | 0.00 | 37 | 1021.6 |
| 20260508034547 | 64 | 184 | 2.6 | 10.4 | 0.00 | 0.00 | 0.00 | 37 | 1021.8 |
| 20260508033049 | 63 | 194 | 3.5 | 12.2 | 0.00 | 0.00 | 0.00 | 37 | 1021.9 |
| 20260508031554 | 63 | 217 | 5.2 | 12.2 | 0.00 | 0.00 | 0.00 | 37 | 1021.9 |
| 20260508030100 | 62 | 215 | 5.2 | 13.9 | 0.00 | 0.00 | 0.00 | 38 | 1021.9 |
| 20260508024556 | 61 | 179 | 5.2 | 13.9 | 0.00 | 0.00 | 0.00 | 38 | 1022.3 |
| 20260508023048 | 61 | 174 | 6.1 | 12.2 | 0.00 | 0.00 | 0.00 | 36 | 1022.5 |
| 20260508021551 | 61 | 198 | 4.3 | 12.2 | 0.00 | 0.00 | 0.00 | 36 | 1022.6 |
| 20260508020045 | 60 | 184 | 3.5 | 12.2 | 0.00 | 0.00 | 0.00 | 38 | 1022.7 |
| 20260508014545 | 59 | 202 | 2.6 | 9.6 | 0.00 | 0.00 | 0.00 | 41 | 1023.0 |
| 20260508013043 | 58 | 146 | 5.2 | 12.2 | 0.00 | 0.00 | 0.00 | 39 | 1023.4 |
| 20260508011546 | 56 | 183 | 5.2 | 12.2 | 0.00 | 0.00 | 0.00 | 46 | 1023.7 |
| 20260508010045 | 55 | 157 | 3.5 | 10.4 | 0.00 | 0.00 | 0.00 | 45 | 1023.6 |
| 20260508004545 | 55 | 191 | 4.3 | 12.2 | 0.00 | 0.00 | 0.00 | 45 | 1023.7 |
| 20260508003049 | 54 | 194 | 5.2 | 10.4 | 0.00 | 0.00 | 0.00 | 48 | 1023.9 |
| 20260508001547 | 54 | 186 | 2.6 | 7.8 | 0.00 | 0.00 | 0.00 | 48 | 1024.0 |
| 20260508000043 | 53 | 177 | 4.3 | 10.4 | 0.00 | 0.00 | 0.00 | 49 | 1024.0 |
| 20260507234547 | 52 | 177 | 2.6 | 7.0 | 0.00 | 0.00 | 0.00 | 49 | 1024.2 |
| 20260507233045 | 50 | 177 | 3.5 | 10.4 | 0.00 | 0.00 | 0.00 | 51 | 1024.3 |
| 20260507231544 | 50 | 195 | 1.7 | 8.7 | 0.00 | 0.00 | 0.00 | 51 | 1024.2 |
| 20260507230044 | 49 | 179 | 2.6 | 7.8 | 0.00 | 0.00 | 0.00 | 53 | 1024.1 |
| 20260507224540 | 48 | 171 | 1.7 | 8.7 | 0.00 | 0.00 | 0.00 | 54 | 1024.2 |
| 20260507223048 | 47 | 197 | 2.6 | 7.8 | 0.00 | 0.00 | 0.00 | 56 | 1024.2 |
| 20260507221547 | 45 | 207 | 4.3 | 8.7 | 0.00 | 0.00 | 0.00 | 58 | 1024.1 |
| 20260507220048 | 44 | 182 | 2.6 | 7.8 | 0.00 | 0.00 | 0.00 | 58 | 1024.0 |
| 20260507214552 | 43 | 173 | 4.3 | 10.4 | 0.00 | 0.00 | 0.00 | 59 | 1023.6 |
| 20260507213057 | 42 | 167 | 3.5 | 9.6 | 0.00 | 0.00 | 0.00 | 61 | 1023.7 |
| 20260507211546 | 41 | 174 | 5.2 | 10.4 | 0.00 | 0.00 | 0.00 | 62 | 1023.7 |
| 20260507210057 | 39 | 173 | 4.3 | 10.4 | 0.00 | 0.00 | 0.00 | 63 | 1023.7 |
| 20260507204555 | 39 | 182 | 4.3 | 9.6 | 0.00 | 0.00 | 0.00 | 64 | 1023.7 |
| 20260507203048 | 38 | 195 | 4.3 | 9.6 | 0.00 | 0.00 | 0.00 | 65 | 1023.0 |
| 20260507201550 | 39 | 173 | 3.5 | 11.3 | 0.00 | 0.00 | 0.00 | 63 | 1023.0 |
| 20260507200055 | 39 | 159 | 4.3 | 12.2 | 0.00 | 0.00 | 0.00 | 62 | 1022.8 |
| 20260507194558 | 40 | 173 | 7.0 | 14.8 | 0.00 | 0.00 | 0.00 | 59 | 1022.5 |
| 20260507193157 | 41 | 159 | 7.0 | 18.2 | 0.00 | 0.00 | 0.00 | 57 | 1022.0 |
| 20260507191616 | 40 | 159 | 6.1 | 13.9 | 0.00 | 0.00 | 0.00 | 59 | 1022.0 |
| 20260507190055 | 40 | 163 | 6.1 | 13.0 | 0.00 | 0.00 | 0.00 | 62 | 1022.1 |
| 20260507184557 | 39 | 128 | 6.1 | 15.6 | 0.00 | 0.00 | 0.00 | 63 | 1021.9 |
| 20260507183051 | 38 | 155 | 7.0 | 13.0 | 0.00 | 0.00 | 0.00 | 65 | 1021.7 |
| 20260507181548 | 38 | 176 | 4.3 | 7.8 | 0.00 | 0.00 | 0.00 | 67 | 1022.4 |
| 20260507180048 | 38 | 182 | 2.6 | 6.1 | 0.00 | 0.00 | 0.00 | 67 | 1022.4 |
| 20260507174547 | 38 | 176 | 2.6 | 6.1 | 0.00 | 0.00 | 0.00 | 68 | 1022.4 |
| 20260507173047 | 38 | 200 | 2.6 | 6.1 | 0.00 | 0.00 | 0.00 | 68 | 1022.3 |
| 20260507171552 | 38 | 188 | 1.7 | 5.2 | 0.00 | 0.00 | 0.00 | 69 | 1022.4 |
| 20260507170042 | 39 | 173 | 2.6 | 6.1 | 0.00 | 0.00 | 0.00 | 68 | 1022.3 |
| 20260507164604 | 39 | 178 | 2.6 | 7.8 | 0.00 | 0.00 | 0.00 | 68 | 1022.1 |
| 20260507163046 | 39 | 203 | 3.5 | 7.0 | 0.00 | 0.00 | 0.00 | 68 | 1021.9 |
| 20260507161601 | 39 | 225 | 2.6 | 6.1 | 0.00 | 0.00 | 0.00 | 68 | 1021.9 |
| 20260507160052 | 40 | 198 | 0.9 | 5.2 | 0.00 | 0.00 | 0.00 | 69 | 1022.0 |
| 20260507154551 | 40 | 167 | 2.6 | 6.1 | 0.00 | 0.00 | 0.00 | 68 | 1022.1 |
| 20260507153052 | 41 | 179 | 3.5 | 8.7 | 0.00 | 0.00 | 0.00 | 68 | 1022.3 |
| 20260507151548 | 42 | 186 | 4.3 | 12.2 | 0.00 | 0.00 | 0.00 | 68 | 1022.1 |
| 20260507150054 | 43 | 184 | 5.2 | 15.6 | 0.00 | 0.00 | 0.00 | 67 | 1021.9 |
| 20260507144552 | 44 | 143 | 5.2 | 16.5 | 0.00 | 0.00 | 0.00 | 64 | 1022.1 |
| 20260507143107 | 44 | 188 | 7.8 | 18.2 | 0.00 | 0.00 | 0.00 | 65 | 1021.9 |
| 20260507141606 | 44 | 168 | 6.1 | 14.8 | 0.00 | 0.00 | 0.00 | 67 | 1022.1 |
| 20260507140048 | 45 | 173 | 2.6 | 15.6 | 0.00 | 0.00 | 0.00 | 71 | 1022.3 |
| 20260507134549 | 46 | 186 | 7.0 | 17.4 | 0.00 | 0.00 | 0.00 | 69 | 1022.1 |
| 20260507133048 | 47 | 177 | 5.2 | 20.0 | 0.00 | 0.00 | 0.00 | 71 | 1021.9 |
| 20260507131607 | 47 | 171 | 7.8 | 19.1 | 0.00 | 0.00 | 0.00 | 71 | 1022.1 |
| 20260507130046 | 47 | 166 | 7.8 | 18.2 | 0.00 | 0.00 | 0.00 | 72 | 1022.1 |